Weather reports worldwide

Advertisment
Muret-Lherm, France (7628): temperature & dewpoint: 20.05.2019 02:00:00 - 26.05.2019 02:00:00 (CEST)Muret-Lherm, France (7628): wind speed & gusts: 20.05.2019 02:00:00 - 26.05.2019 02:00:00 (CEST)Muret-Lherm, France (7628): wind direction: 20.05.2019 02:00:00 - 26.05.2019 02:00:00 (CEST)Muret-Lherm, France (7628): reduced air pressure: 20.05.2019 02:00:00 - 26.05.2019 02:00:00 (CEST)Muret-Lherm, France (7628): visibility: 20.05.2019 02:00:00 - 26.05.2019 02:00:00 (CEST)Muret-Lherm, France (7628): precipitation: 20.05.2019 02:00:00 - 26.05.2019 02:00:00 (CEST)
Date & Time tt [°C] td [°C] ff [km/h] ff [kn] fx [km/h] fx [kn] dd ppp [hPa] vv [km] rr [mm]
26.05.2019 02:00:00 - - - - - - - - - -
26.05.2019 01:00:00 13,7 9,9 18 10 34 18 WNW 1022,8 20 0,0
26.05.2019 00:00:00 14,6 12,6 13 7 21 11 W 1022,7 20 0,0
25.05.2019 23:00:00 15,1 12,8 13 7 22 12 W 1022,4 20 0,0
25.05.2019 22:00:00 15,4 13,1 13 7 29 16 W 1021,7 20 0,0
25.05.2019 21:00:00 16,0 13,1 18 10 37 20 W 1021,0 20 0,0
25.05.2019 20:00:00 17,1 12,8 15 8 31 17 W 1020,5 20 -
25.05.2019 19:00:00 18,8 13,9 24 13 42 23 W 1019,9 20 0,0
25.05.2019 18:00:00 18,1 14,0 29 16 41 22 W 1019,9 20 0,0
25.05.2019 17:00:00 17,9 14,2 22 12 39 21 W 1019,7 20 0,0
25.05.2019 16:00:00 18,9 14,8 24 13 35 19 WSW 1019,7 19 0,0
25.05.2019 15:00:00 18,5 14,8 26 14 39 21 W 1020,0 20 0,0
25.05.2019 14:00:00 17,8 14,3 26 14 39 21 W 1020,3 20 -
25.05.2019 13:00:00 17,3 14,0 21 11 31 17 WNW 1020,5 19 0,0
25.05.2019 12:00:00 15,4 13,8 16 9 34 18 W 1020,8 17 0,0
25.05.2019 11:00:00 13,7 12,9 21 11 37 20 WNW 1020,9 9 0,0
25.05.2019 10:00:00 13,5 12,4 21 11 31 17 W 1020,4 18 0,0
25.05.2019 09:00:00 13,0 12,1 15 8 29 16 WNW 1020,1 20 0,2
25.05.2019 08:00:00 13,0 12,2 18 10 29 16 W 1019,6 20 -
25.05.2019 07:00:00 13,2 12,3 18 10 29 16 WNW 1019,1 8 1,0
25.05.2019 06:00:00 13,3 12,2 18 10 29 16 WNW 1018,8 20 0,0
25.05.2019 05:00:00 13,4 12,5 16 9 34 18 WNW 1018,6 20 0,0
25.05.2019 04:00:00 13,5 12,6 16 9 29 16 WNW 1018,7 13 0,2
25.05.2019 03:00:00 13,7 12,8 16 9 24 13 WNW 1018,7 8 0,4
25.05.2019 02:00:00 13,9 13,1 13 7 18 10 NW 1019,0 15 -
25.05.2019 01:00:00 13,7 12,8 11 6 22 12 NW 1019,2 20 0,6
25.05.2019 00:00:00 14,1 13,3 16 9 29 16 WNW 1018,8 14 2,0
24.05.2019 23:00:00 14,2 13,1 15 8 28 15 W 1018,8 11 -
24.05.2019 22:00:00 14,1 13,0 15 8 26 14 W 1018,3 19 0,0
24.05.2019 21:00:00 14,3 13,2 11 6 18 10 W 1018,0 15 1,0
24.05.2019 20:00:00 14,4 13,1 16 9 26 14 W 1017,8 10 -
24.05.2019 19:00:00 15,0 13,2 21 11 29 16 W 1017,6 17 0,4
24.05.2019 18:00:00 15,9 14,1 18 10 29 16 WNW 1017,4 20 0,0
24.05.2019 17:00:00 17,1 14,2 18 10 24 13 NW 1017,2 20 0,2
24.05.2019 16:00:00 16,7 14,3 15 8 22 12 NW 1017,6 20 0,6
24.05.2019 15:00:00 16,4 14,2 15 8 21 11 NW 1017,9 20 0,2
24.05.2019 14:00:00 15,9 13,9 15 8 21 11 WNW 1018,1 20 -
24.05.2019 13:00:00 14,8 13,5 11 6 18 10 WNW 1018,6 14 1,0
24.05.2019 12:00:00 14,2 13,1 13 7 18 10 WNW 1018,8 13 1,0
24.05.2019 11:00:00 13,7 12,8 9 5 21 11 WNW 1018,8 10 -
24.05.2019 10:00:00 13,3 12,4 13 7 22 12 WNW 1018,7 11 2,0
24.05.2019 09:00:00 13,1 12,2 15 8 22 12 WNW 1018,4 12 2,0
24.05.2019 08:00:00 13,1 12,3 11 6 18 10 WNW 1018,2 11 -
24.05.2019 07:00:00 13,3 12,4 11 6 29 16 WNW 1017,9 16 1,0
24.05.2019 06:00:00 13,7 12,6 16 9 26 14 WNW 1017,6 7 0,6
24.05.2019 05:00:00 14,3 13,0 16 9 28 15 WNW 1017,6 12 0,0
24.05.2019 04:00:00 14,1 13,1 15 8 24 13 W 1018,0 6 3,0
24.05.2019 03:00:00 14,1 13,1 15 8 28 15 WNW 1018,1 6 2,0
24.05.2019 02:00:00 14,3 12,2 22 12 35 19 W 1018,0 18 -
24.05.2019 01:00:00 16,4 11,3 18 10 35 19 W 1018,1 20 0,0
24.05.2019 00:00:00 17,7 11,7 26 14 42 23 W 1017,8 20 0,0
23.05.2019 23:00:00 19,3 14,3 28 15 46 25 W 1017,6 19 -
23.05.2019 22:00:00 19,9 11,9 8 4 11 6 WNW 1016,7 20 0,0
23.05.2019 21:00:00 21,0 11,1 9 5 16 9 NW 1016,1 20 0,0
23.05.2019 20:00:00 22,7 10,5 11 6 18 10 N 1015,4 20 -
23.05.2019 19:00:00 24,2 9,4 11 6 18 10 WNW 1015,0 20 0,0
23.05.2019 18:00:00 24,9 9,2 11 6 18 10 NW 1015,0 20 0,0
23.05.2019 17:00:00 24,9 10,0 8 4 22 12 N 1015,1 19 0,0
23.05.2019 16:00:00 25,3 10,0 11 6 16 9 NNW 1015,3 20 0,0
23.05.2019 15:00:00 25,3 10,3 9 5 21 11 WNW 1015,6 20 0,0
23.05.2019 14:00:00 25,0 11,2 8 4 22 12 NNE 1016,1 20 -
23.05.2019 13:00:00 24,0 9,6 5 3 16 9 E 1016,5 18 0,0
23.05.2019 12:00:00 23,2 11,9 5 3 9 5 E 1017,1 18 0,0
23.05.2019 11:00:00 21,5 12,3 5 3 11 6 S 1017,4 18 0,0
23.05.2019 10:00:00 19,2 12,0 4 2 8 4 SE 1017,8 19 0,0
23.05.2019 09:00:00 14,6 11,6 5 3 11 6 SSW 1018,0 20 0,0
23.05.2019 08:00:00 11,4 10,5 8 4 13 7 SSW 1018,0 15 -
23.05.2019 07:00:00 9,0 8,4 8 4 9 5 SSW 1018,0 14 0,0
23.05.2019 06:00:00 8,8 7,9 8 4 9 5 SW 1017,7 17 0,0
23.05.2019 05:00:00 9,5 8,6 8 4 9 5 S 1017,6 19 0,0
23.05.2019 04:00:00 10,2 9,1 5 3 9 5 S 1017,6 20 0,0
23.05.2019 03:00:00 10,5 9,1 8 4 9 5 S 1017,9 20 0,0
23.05.2019 02:00:00 10,9 9,2 8 4 13 7 S 1018,0 20 -
23.05.2019 01:00:00 11,5 9,2 5 3 9 5 SSW 1018,2 20 0,0
23.05.2019 00:00:00 13,2 9,6 0 0 4 2 N 1018,4 20 0,0
22.05.2019 23:00:00 15,1 10,1 4 2 8 4 WNW 1018,4 20 0,0
22.05.2019 22:00:00 16,8 10,2 5 3 8 4 NNW 1018,1 20 0,0
22.05.2019 21:00:00 21,0 10,2 5 3 13 7 NNW 1017,4 20 0,0
22.05.2019 20:00:00 22,3 9,5 8 4 16 9 N 1017,0 20 -
22.05.2019 19:00:00 23,2 9,2 13 7 21 11 N 1017,0 20 0,0
22.05.2019 18:00:00 23,1 9,1 11 6 26 14 NNE 1017,1 20 0,0
22.05.2019 17:00:00 23,5 9,5 9 5 24 13 N 1017,4 20 0,0
22.05.2019 16:00:00 23,2 10,6 9 5 31 17 NNE 1017,7 20 0,0
22.05.2019 15:00:00 22,3 11,7 5 3 22 12 N 1018,2 20 0,0
22.05.2019 14:00:00 21,7 11,1 8 4 18 10 NE 1018,7 20 -
22.05.2019 13:00:00 21,4 12,3 5 3 16 9 ESE 1019,1 20 0,0
22.05.2019 12:00:00 19,5 10,8 4 2 15 8 WSW 1019,6 19 0,0
22.05.2019 11:00:00 19,2 11,0 5 3 15 8 NNW 1019,5 20 -
22.05.2019 10:00:00 17,0 11,5 4 2 11 6 W 1019,9 20 0,0
22.05.2019 09:00:00 13,5 11,2 9 5 13 7 SSW 1020,1 20 0,0
22.05.2019 08:00:00 10,3 9,4 8 4 13 7 S 1020,3 19 -
22.05.2019 07:00:00 7,9 7,3 8 4 13 7 S 1020,0 14 0,0
22.05.2019 06:00:00 7,7 6,9 9 5 11 6 SSW 1019,9 16 0,0
22.05.2019 05:00:00 8,1 7,3 8 4 13 7 SSW 1019,7 15 0,0
22.05.2019 04:00:00 8,4 7,5 8 4 11 6 S 1019,8 17 0,0
22.05.2019 03:00:00 8,8 7,9 5 3 11 6 SSW 1019,8 19 0,0
22.05.2019 02:00:00 9,1 7,9 8 4 11 6 S 1019,7 20 -
22.05.2019 01:00:00 9,8 8,2 8 4 9 5 S 1019,8 20 0,0
22.05.2019 00:00:00 11,0 8,2 5 3 13 7 WSW 1019,8 20 0,0
21.05.2019 23:00:00 14,1 9,5 11 6 13 7 NNW 1019,6 20 0,0
21.05.2019 22:00:00 14,9 9,3 8 4 15 8 NW 1019,1 20 0,0
21.05.2019 21:00:00 17,6 8,4 9 5 18 10 NW 1018,2 20 0,0
21.05.2019 20:00:00 19,7 8,1 13 7 26 14 NNW 1017,5 20 -
21.05.2019 19:00:00 20,4 8,7 15 8 22 12 WNW 1017,0 20 0,0
21.05.2019 18:00:00 20,5 9,4 13 7 29 16 NNW 1017,1 20 0,0
21.05.2019 17:00:00 19,9 10,0 15 8 28 15 NNW 1017,3 20 0,0
21.05.2019 16:00:00 20,0 10,7 15 8 29 16 NW 1017,7 20 0,0
21.05.2019 15:00:00 18,4 9,2 13 7 28 15 NNW 1018,1 19 0,0
21.05.2019 14:00:00 17,7 9,8 15 8 26 14 NW 1018,5 20 -
21.05.2019 13:00:00 16,9 11,4 13 7 26 14 NNW 1018,7 20 0,0
21.05.2019 12:00:00 16,0 11,8 13 7 22 12 WNW 1018,6 20 0,0
21.05.2019 11:00:00 14,3 11,1 13 7 22 12 WNW 1018,7 19 0,0
21.05.2019 10:00:00 12,8 11,0 8 4 15 8 WNW 1018,7 18 0,0
21.05.2019 09:00:00 11,4 10,5 8 4 16 9 WNW 1018,5 11 0,0
21.05.2019 08:00:00 10,1 9,5 5 3 9 5 SSW 1018,2 13 -
21.05.2019 07:00:00 8,4 7,8 5 3 8 4 SSW 1017,7 11 0,0
21.05.2019 06:00:00 8,6 8,0 8 4 13 7 S 1017,4 13 0,0
21.05.2019 05:00:00 8,2 7,8 9 5 13 7 SSW 1017,4 14 0,0
21.05.2019 04:00:00 7,6 6,8 8 4 9 5 S 1017,4 16 0,0
21.05.2019 03:00:00 7,6 6,8 8 4 11 6 SSW 1017,4 18 0,0
21.05.2019 02:00:00 8,1 6,9 8 4 11 6 S 1017,6 20 -
21.05.2019 01:00:00 9,7 8,0 8 4 18 10 S 1017,7 20 0,0
21.05.2019 00:00:00 11,5 8,9 13 7 16 9 W 1017,3 20 0,0
20.05.2019 23:00:00 12,3 8,4 9 5 13 7 W 1016,8 20 0,0
20.05.2019 22:00:00 12,9 8,2 9 5 16 9 WNW 1015,9 20 0,0
20.05.2019 21:00:00 15,2 8,2 11 6 28 15 NNW 1015,0 20 0,0
20.05.2019 20:00:00 16,9 9,1 18 10 34 18 NNW 1014,5 20 -
20.05.2019 19:00:00 18,1 9,7 24 13 34 18 NNW 1014,1 20 0,0
20.05.2019 18:00:00 19,0 8,3 16 9 31 17 NW 1013,6 20 0,0
20.05.2019 17:00:00 19,0 8,3 18 10 29 16 WNW 1013,7 20 0,0
20.05.2019 16:00:00 18,6 8,0 15 8 31 17 WNW 1014,1 20 0,0
20.05.2019 15:00:00 18,1 10,0 15 8 28 15 WNW 1014,5 20 0,0
20.05.2019 14:00:00 16,3 8,3 16 9 26 14 WNW 1015,0 20 -
20.05.2019 13:00:00 15,5 9,2 18 10 31 17 WNW 1015,1 20 0,0
20.05.2019 12:00:00 14,3 8,7 26 14 37 20 W 1015,2 20 0,0
20.05.2019 11:00:00 14,6 9,4 21 11 31 17 W 1015,2 20 0,0
20.05.2019 10:00:00 13,1 9,5 18 10 28 15 WNW 1015,3 20 0,0
20.05.2019 09:00:00 11,8 9,7 13 7 18 10 W 1015,1 20 0,0
20.05.2019 08:00:00 11,1 9,7 11 6 18 10 W 1014,7 18 -
20.05.2019 07:00:00 11,0 9,6 9 5 15 8 W 1014,2 19 0,0
20.05.2019 06:00:00 10,8 9,7 9 5 21 11 W 1013,8 15 0,0
20.05.2019 05:00:00 10,5 9,3 9 5 26 14 W 1013,8 16 0,0
20.05.2019 04:00:00 10,6 9,0 15 8 28 15 W 1013,9 18 0,0
20.05.2019 03:00:00 11,4 9,3 16 9 26 14 W 1014,2 20 0,0
20.05.2019 02:00:00 11,5 9,6 15 8 29 16 W 1014,3 20 -

tt = temperature
td = dewpoint
ff = wind speed
fx = gusts
dd = wind direction
ppp = reduced air pressure
vv = visibility
rr = precipitation

Next stations